| time (UTC) | temp F | wind direction | speed MPH | gust MPH | rain 1hr in | rain 24hr in | rain mn in | humidity % | barometer mb |
| 20260505011306 | 60 | 68 | 1.0 | 6.0 | 0.00 | 0.00 | 0.00 | 83 | 1009.7 |
| 20260505010756 | 60 | 113 | 2.0 | 6.0 | 0.00 | 0.00 | 0.00 | 81 | 1009.8 |
| 20260505010247 | 60 | 45 | 2.0 | 4.0 | 0.00 | 0.00 | 0.00 | 80 | 1010.1 |
| 20260505005736 | 59 | 90 | 2.0 | 4.0 | 0.00 | 0.00 | 0.00 | 81 | 1010.1 |
| 20260505005226 | 59 | 68 | 2.0 | 4.0 | 0.00 | 0.00 | 0.00 | 82 | 1009.8 |
| 20260505004205 | 59 | 23 | 2.0 | 4.0 | 0.00 | 0.00 | 0.00 | 83 | 1009.9 |
| 20260505003655 | 59 | 113 | 2.0 | 4.0 | 0.00 | 0.00 | 0.00 | 85 | 1009.4 |
| 20260505002635 | 59 | 68 | 2.0 | 4.0 | 0.00 | 0.00 | 0.00 | 87 | 1009.4 |
| 20260505002124 | 59 | 113 | 2.0 | 4.0 | 0.00 | 0.00 | 0.00 | 87 | 1009.8 |
| 20260505001614 | 59 | 135 | 0.0 | 4.0 | 0.00 | 0.00 | 0.00 | 88 | 1009.8 |
| 20260505001105 | 59 | 68 | 2.0 | 4.0 | 0.00 | 0.00 | 0.00 | 88 | 1009.9 |
| 20260505000555 | 59 | 90 | 1.0 | 4.0 | 0.00 | 0.00 | 0.00 | 88 | 1010.0 |
| 20260505000044 | 59 | 135 | 1.0 | 2.0 | 0.00 | 0.00 | 0.00 | 88 | 1010.2 |
| 20260504235534 | 59 | 90 | 0.0 | 7.0 | 0.00 | 0.00 | 0.00 | 88 | 1010.1 |
| 20260504235026 | 59 | 90 | 2.0 | 7.0 | 0.00 | 0.00 | 0.00 | 88 | 1010.1 |
| 20260504234513 | 59 | 113 | 1.0 | 4.0 | 0.00 | 0.00 | 0.00 | 88 | 1010.0 |
| 20260504234006 | 59 | 68 | 1.0 | 2.0 | 0.00 | 0.00 | 0.00 | 88 | 1010.0 |
| 20260504232944 | 59 | 113 | 1.0 | 4.0 | 0.00 | 0.00 | 0.00 | 88 | 1010.0 |
| 20260504232434 | 59 | 68 | 0.0 | 4.0 | 0.00 | 0.00 | 0.00 | 88 | 1010.0 |
| 20260504231414 | 59 | 113 | 2.0 | 4.0 | 0.00 | 0.00 | 0.00 | 87 | 1009.8 |
| 20260504230904 | 59 | 68 | 1.0 | 4.0 | 0.00 | 0.00 | 0.00 | 87 | 1009.9 |
| 20260504230353 | 59 | 113 | 1.0 | 4.0 | 0.00 | 0.00 | 0.00 | 87 | 1010.0 |
| 20260504225843 | 59 | 113 | 1.0 | 4.0 | 0.00 | 0.00 | 0.00 | 87 | 1009.9 |
| 20260504224823 | 59 | 90 | 1.0 | 4.0 | 0.00 | 0.00 | 0.00 | 88 | 1009.5 |
| 20260504224313 | 59 | 68 | 2.0 | 7.0 | 0.00 | 0.00 | 0.00 | 88 | 1009.6 |
| 20260504223803 | 59 | 158 | 2.0 | 7.0 | 0.00 | 0.00 | 0.00 | 88 | 1009.3 |
| 20260504223253 | 59 | 113 | 2.0 | 4.0 | 0.00 | 0.00 | 0.00 | 88 | 1009.5 |
| 20260504222742 | 59 | 135 | 1.0 | 4.0 | 0.00 | 0.00 | 0.00 | 87 | 1009.5 |
| 20260504222231 | 59 | 158 | 0.0 | 4.0 | 0.00 | 0.00 | 0.00 | 87 | 1009.5 |
| 20260504221724 | 59 | 0 | 2.0 | 2.0 | 0.00 | 0.00 | 0.00 | 87 | 1009.6 |
| 20260504220610 | 60 | 68 | 2.0 | 4.0 | 0.00 | 0.00 | 0.00 | 85 | 1009.5 |
| 20260504220101 | 60 | 113 | 0.0 | 4.0 | 0.00 | 0.00 | 0.00 | 84 | 1009.4 |
| 20260504215550 | 60 | 68 | 2.0 | 4.0 | 0.00 | 0.00 | 0.00 | 83 | 1009.2 |
| 20260504215040 | 60 | 293 | 1.0 | 4.0 | 0.00 | 0.00 | 0.00 | 82 | 1009.1 |
| 20260504214535 | 61 | 135 | 2.0 | 6.0 | 0.00 | 0.00 | 0.00 | 81 | 1008.8 |
| 20260504214020 | 61 | 158 | 2.0 | 6.0 | 0.00 | 0.00 | 0.00 | 79 | 1008.9 |
| 20260504213510 | 61 | 45 | 2.0 | 4.0 | 0.00 | 0.00 | 0.00 | 77 | 1008.8 |
| 20260504213000 | 61 | 113 | 1.0 | 4.0 | 0.00 | 0.00 | 0.00 | 76 | 1008.9 |
| 20260504212451 | 61 | 45 | 1.0 | 2.0 | 0.00 | 0.00 | 0.00 | 75 | 1008.8 |
| 20260504211255 | 62 | 23 | 2.0 | 4.0 | 0.00 | 0.00 | 0.00 | 73 | 1008.8 |
| 20260504210745 | 62 | 68 | 0.0 | 4.0 | 0.00 | 0.00 | 0.00 | 72 | 1008.7 |
| 20260504205727 | 62 | 45 | 0.0 | 2.0 | 0.00 | 0.00 | 0.00 | 71 | 1008.5 |
| 20260504204648 | 63 | 225 | 0.0 | 2.0 | 0.00 | 0.00 | 0.00 | 69 | 1008.4 |
| 20260504204137 | 64 | 45 | 0.0 | 2.0 | 0.00 | 0.00 | 0.00 | 68 | 1008.4 |
| 20260504203627 | 64 | 315 | 0.0 | 4.0 | 0.00 | 0.00 | 0.00 | 66 | 1008.4 |
| 20260504202607 | 66 | 23 | 1.0 | 2.0 | 0.00 | 0.00 | 0.00 | 63 | 1008.1 |
| 20260504202100 | 65 | 90 | 2.0 | 4.0 | 0.00 | 0.00 | 0.00 | 63 | 1008.3 |
| 20260504201546 | 66 | 45 | 1.0 | 4.0 | 0.00 | 0.00 | 0.00 | 63 | 1008.3 |
| 20260504201037 | 67 | 135 | 0.0 | 4.0 | 0.00 | 0.00 | 0.00 | 61 | 1008.1 |
| 20260504200015 | 66 | 45 | 2.0 | 4.0 | 0.00 | 0.00 | 0.00 | 61 | 1007.9 |
| 20260504195506 | 66 | 0 | 2.0 | 7.0 | 0.00 | 0.00 | 0.00 | 62 | 1008.1 |
| 20260504194955 | 65 | 68 | 2.0 | 7.0 | 0.00 | 0.00 | 0.00 | 62 | 1007.9 |
| 20260504193935 | 66 | 0 | 2.0 | 7.0 | 0.00 | 0.00 | 0.00 | 60 | 1008.1 |
| 20260504193424 | 66 | 23 | 2.0 | 8.0 | 0.00 | 0.00 | 0.00 | 59 | 1007.8 |
| 20260504192915 | 66 | 68 | 1.0 | 8.0 | 0.00 | 0.00 | 0.00 | 59 | 1007.8 |
| 20260504192404 | 67 | 203 | 2.0 | 9.0 | 0.00 | 0.00 | 0.00 | 58 | 1007.5 |
| 20260504191854 | 67 | 338 | 2.0 | 9.0 | 0.00 | 0.00 | 0.00 | 58 | 1007.2 |
| 20260504191345 | 67 | 90 | 3.0 | 8.0 | 0.00 | 0.00 | 0.00 | 57 | 1007.3 |
| 20260504190324 | 69 | 68 | 2.0 | 11.0 | 0.00 | 0.00 | 0.00 | 54 | 1007.6 |
| 20260504185819 | 70 | 45 | 4.0 | 11.0 | 0.00 | 0.00 | 0.00 | 54 | 1007.5 |
| 20260504185304 | 71 | 293 | 3.0 | 8.0 | 0.00 | 0.00 | 0.00 | 51 | 1007.4 |
| 20260504184754 | 71 | 113 | 3.0 | 7.0 | 0.00 | 0.00 | 0.00 | 52 | 1007.6 |
| 20260504184244 | 71 | 90 | 3.0 | 8.0 | 0.00 | 0.00 | 0.00 | 52 | 1007.4 |
| 20260504183733 | 71 | 90 | 4.0 | 9.0 | 0.00 | 0.00 | 0.00 | 49 | 1007.6 |
| 20260504183223 | 71 | 45 | 5.0 | 9.0 | 0.00 | 0.00 | 0.00 | 48 | 1007.5 |
| 20260504182713 | 72 | 23 | 2.0 | 9.0 | 0.00 | 0.00 | 0.00 | 47 | 1007.6 |
| 20260504182203 | 71 | 248 | 1.0 | 11.0 | 0.00 | 0.00 | 0.00 | 48 | 1007.6 |
| 20260504181653 | 71 | 45 | 4.0 | 11.0 | 0.00 | 0.00 | 0.00 | 47 | 1007.9 |
| 20260504181142 | 72 | 45 | 4.0 | 9.0 | 0.00 | 0.00 | 0.00 | 47 | 1007.7 |
| 20260504180633 | 71 | 68 | 3.0 | 14.0 | 0.00 | 0.00 | 0.00 | 48 | 1007.9 |
| 20260504180122 | 71 | 45 | 2.0 | 14.0 | 0.00 | 0.00 | 0.00 | 48 | 1007.8 |
| 20260504175612 | 71 | 68 | 4.0 | 11.0 | 0.00 | 0.00 | 0.00 | 47 | 1007.7 |
| 20260504175106 | 71 | 23 | 4.0 | 11.0 | 0.00 | 0.00 | 0.00 | 46 | 1007.8 |
| 20260504174552 | 70 | 68 | 4.0 | 9.0 | 0.00 | 0.00 | 0.00 | 48 | 1008.0 |
| 20260504174042 | 70 | 0 | 3.0 | 11.0 | 0.00 | 0.00 | 0.00 | 48 | 1008.0 |
| 20260504173532 | 70 | 68 | 5.0 | 11.0 | 0.00 | 0.00 | 0.00 | 48 | 1008.4 |
| 20260504173021 | 70 | 45 | 3.0 | 11.0 | 0.00 | 0.00 | 0.00 | 49 | 1008.2 |
| 20260504172512 | 70 | 23 | 4.0 | 14.0 | 0.00 | 0.00 | 0.00 | 48 | 1008.2 |
| 20260504172001 | 69 | 68 | 5.0 | 14.0 | 0.00 | 0.00 | 0.00 | 49 | 1008.0 |
| 20260504171451 | 70 | 68 | 5.0 | 11.0 | 0.00 | 0.00 | 0.00 | 49 | 1008.3 |
| 20260504170942 | 70 | 68 | 4.0 | 9.0 | 0.00 | 0.00 | 0.00 | 48 | 1008.6 |
| 20260504170431 | 70 | 45 | 2.0 | 8.0 | 0.00 | 0.00 | 0.00 | 48 | 1008.7 |
| 20260504160321 | 68 | 45 | 5.0 | 9.0 | 0.00 | 0.00 | 0.00 | 54 | 1009.4 |
| 20260504151140 | 65 | 90 | 7.0 | 11.0 | 0.00 | 0.00 | 0.00 | 54 | 1010.0 |
| 20260504150630 | 65 | 45 | 5.0 | 11.0 | 0.00 | 0.00 | 0.00 | 55 | 1010.3 |
| 20260504150120 | 65 | 0 | 4.0 | 15.0 | 0.00 | 0.00 | 0.00 | 55 | 1010.3 |
| 20260504141223 | 62 | 68 | 6.0 | 13.0 | 0.00 | 0.00 | 0.00 | 58 | 1010.5 |
| 20260504140713 | 62 | 68 | 6.0 | 14.0 | 0.00 | 0.00 | 0.00 | 59 | 1010.4 |
| 20260504130511 | 58 | 90 | 3.0 | 13.0 | 0.00 | 0.00 | 0.00 | 64 | 1011.0 |
| 20260504120309 | 55 | 338 | 3.0 | 11.0 | 0.00 | 0.00 | 0.00 | 71 | 1011.3 |
| 20260504110617 | 52 | 45 | 2.0 | 7.0 | 0.00 | 0.00 | 0.00 | 78 | 1011.0 |
| 20260504110108 | 53 | 45 | 4.0 | 11.0 | 0.00 | 0.00 | 0.00 | 78 | 1011.0 |
| 20260504081543 | 57 | 68 | 6.0 | 14.0 | 0.00 | 0.00 | 0.00 | 76 | 1010.1 |
| 20260504081033 | 57 | 68 | 3.0 | 14.0 | 0.00 | 0.00 | 0.00 | 76 | 1010.0 |
| 20260504080523 | 57 | 248 | 4.0 | 11.0 | 0.00 | 0.00 | 0.00 | 76 | 1009.9 |
| 20260504070321 | 56 | 68 | 4.0 | 9.0 | 0.00 | 0.00 | 0.00 | 75 | 1010.1 |
| 20260504060119 | 57 | 113 | 3.0 | 8.0 | 0.00 | 0.00 | 0.00 | 73 | 1011.2 |
| 20260504050341 | 57 | 90 | 2.0 | 11.0 | 0.00 | 0.00 | 0.00 | 74 | 1011.4 |
| 20260504045321 | 57 | 0 | 3.0 | 11.0 | 0.00 | 0.00 | 0.00 | 74 | 1011.9 |
| 20260504044811 | 57 | 90 | 4.0 | 11.0 | 0.00 | 0.00 | 0.00 | 74 | 1011.9 |
| 20260504044300 | 57 | 68 | 2.0 | 11.0 | 0.00 | 0.00 | 0.00 | 74 | 1011.8 |
| 20260504043750 | 57 | 90 | 5.0 | 11.0 | 0.00 | 0.00 | 0.00 | 73 | 1012.1 |
| 20260504043241 | 58 | 270 | 4.0 | 11.0 | 0.00 | 0.00 | 0.00 | 73 | 1012.2 |
| 20260504042730 | 58 | 68 | 3.0 | 11.0 | 0.00 | 0.00 | 0.00 | 72 | 1012.2 |
| 20260504042220 | 58 | 90 | 3.0 | 11.0 | 0.00 | 0.00 | 0.00 | 72 | 1012.0 |
| 20260504041709 | 58 | 45 | 4.0 | 11.0 | 0.00 | 0.00 | 0.00 | 72 | 1012.0 |
| 20260504041200 | 58 | 45 | 4.0 | 8.0 | 0.00 | 0.00 | 0.00 | 72 | 1012.3 |
| 20260504040650 | 58 | 68 | 2.0 | 8.0 | 0.00 | 0.00 | 0.00 | 71 | 1012.2 |
| 20260504040139 | 58 | 90 | 3.0 | 11.0 | 0.00 | 0.00 | 0.00 | 71 | 1012.5 |
| 20260504035630 | 58 | 23 | 2.0 | 11.0 | 0.00 | 0.00 | 0.00 | 71 | 1012.5 |
| 20260504034609 | 58 | 90 | 5.0 | 14.0 | 0.00 | 0.00 | 0.00 | 71 | 1012.6 |
| 20260504034059 | 58 | 45 | 2.0 | 9.0 | 0.00 | 0.00 | 0.00 | 71 | 1012.7 |
| 20260504033549 | 58 | 90 | 4.0 | 11.0 | 0.00 | 0.00 | 0.00 | 71 | 1012.4 |
| 20260504033039 | 58 | 90 | 3.0 | 11.0 | 0.00 | 0.00 | 0.00 | 70 | 1012.3 |
| 20260504032018 | 58 | 45 | 2.0 | 9.0 | 0.00 | 0.00 | 0.00 | 70 | 1012.4 |
| 20260504031508 | 58 | 338 | 4.0 | 11.0 | 0.00 | 0.00 | 0.00 | 69 | 1012.4 |
| 20260504030959 | 58 | 68 | 3.0 | 11.0 | 0.00 | 0.00 | 0.00 | 69 | 1012.2 |
| 20260504030448 | 58 | 90 | 4.0 | 9.0 | 0.00 | 0.00 | 0.00 | 69 | 1012.4 |
| 20260504025938 | 58 | 338 | 3.0 | 13.0 | 0.00 | 0.00 | 0.00 | 69 | 1012.2 |
| 20260504025428 | 58 | 113 | 2.0 | 13.0 | 0.00 | 0.00 | 0.00 | 69 | 1012.4 |
| 20260504024407 | 58 | 68 | 3.0 | 11.0 | 0.00 | 0.00 | 0.00 | 68 | 1012.2 |
| 20260504023347 | 58 | 68 | 2.0 | 7.0 | 0.00 | 0.00 | 0.00 | 68 | 1012.3 |
| 20260504022327 | 58 | 68 | 3.0 | 9.0 | 0.00 | 0.00 | 0.00 | 68 | 1012.2 |
| 20260504021307 | 58 | 90 | 2.0 | 11.0 | 0.00 | 0.00 | 0.00 | 69 | 1012.3 |
| 20260504020756 | 58 | 45 | 2.0 | 8.0 | 0.00 | 0.00 | 0.00 | 69 | 1012.4 |
| 20260504020247 | 58 | 113 | 3.0 | 7.0 | 0.00 | 0.00 | 0.00 | 69 | 1012.3 |
| 20260504015737 | 58 | 68 | 2.0 | 7.0 | 0.00 | 0.00 | 0.00 | 69 | 1012.6 |
| 20260504015226 | 58 | 90 | 3.0 | 7.0 | 0.00 | 0.00 | 0.00 | 69 | 1012.4 |
| 20260504014717 | 57 | 90 | 2.0 | 7.0 | 0.00 | 0.00 | 0.00 | 69 | 1012.3 |
| 20260504014205 | 57 | 113 | 2.0 | 8.0 | 0.00 | 0.00 | 0.00 | 70 | 1012.6 |
| 20260504013659 | 57 | 293 | 2.0 | 8.0 | 0.00 | 0.00 | 0.00 | 69 | 1012.7 |
| 20260504013145 | 57 | 68 | 1.0 | 7.0 | 0.00 | 0.00 | 0.00 | 69 | 1012.6 |
| 20260504012637 | 57 | 68 | 3.0 | 8.0 | 0.00 | 0.00 | 0.00 | 69 | 1012.9 |
| 20260504012126 | 57 | 90 | 2.0 | 8.0 | 0.00 | 0.00 | 0.00 | 70 | 1012.7 |